Weather History for PAGS - April, 2013

Change the Weather History Date:

Friday, April 19, 2013

  Actual Average Record
Temperature  
Mean Temperature 32 °F -  
Max Temperature 44 °F 49 °F 57 °F (1967)
Min Temperature 21 °F 35 °F 19 °F (2008)
Degree Days  
Heating Degree Days 32    
Moisture  
Dew Point 16 °F    
Average Humidity 52    
Maximum Humidity 100    
Minimum Humidity 25    
Precipitation  
Precipitation 0.00 in - - ()
Sea Level Pressure  
Sea Level Pressure 30.17 in    
Wind  
Wind Speed 4 mph (NNW)    
Max Wind Speed 15 mph    
Max Gust Speed 20 mph    
Visibility 10 miles    
Events      
Averages and records for this station are not official NWS values.
T = Trace of Precipitation, MM = Missing Value Source: NWS Daily Summary

Daily Weather History Graph

Daily Weather History Graph

Search for Another Location

Airport or City:

Trip Planner

Search our weather history database for the weather conditions in past years. The results will help you decide how hot, cold, wet, or windy it might be!

Date:

Astronomy

Apr. 19, 2013 Rise Set
Actual Time 5:38 AM AKDT 8:26 PM AKDT
Civil Twilight 4:53 AM AKDT 9:11 PM AKDT
Nautical Twilight 3:54 AM AKDT 10:12 PM AKDT
Astronomical Twilight 2:29 AM AKDT 11:39 PM AKDT
Moon 12:59 PM AKDT (4/19) 3:21 AM AKDT (4/19)
Length of Visible Light 16h 17m
Length of Day
14h 47m
Waxing Gibbous, 63% of the Moon is Illuminated
Apr 19
Waxing Gibbous
Apr 25
Full
May 2
Last Quarter
May 9
New
May 17
First Quarter

Hourly Weather History & Observations

Time (AKDT) Temp. Windchill Dew Point Humidity Pressure Visibility Wind Dir Wind Speed Gust Speed Precip Events Conditions
12:16 AM 26.6 °F - 26.6 °F 100% 30.00 in 10.0 mi Calm Calm - N/A   Clear
12:36 AM 28.4 °F - 26.6 °F 93% 30.00 in 10.0 mi Calm Calm - N/A   Clear
12:56 AM 26.6 °F - 26.6 °F 100% 30.01 in 10.0 mi Calm Calm - N/A   Clear
1:16 AM 26.6 °F - 24.8 °F 93% 30.02 in 10.0 mi Calm Calm - N/A   Clear
1:56 AM 26.6 °F - 24.8 °F 93% 30.03 in 10.0 mi Calm Calm - N/A   Clear
2:16 AM 26.6 °F - 24.8 °F 93% 30.03 in 10.0 mi Calm Calm - N/A   Clear
2:56 AM 24.8 °F - 23.0 °F 93% 30.05 in 10.0 mi Calm Calm - N/A   Clear
3:16 AM 23.0 °F - 21.2 °F 93% 30.05 in 10.0 mi Calm Calm - N/A   Clear
3:36 AM 24.8 °F - 23.0 °F 93% 30.06 in 10.0 mi Calm Calm - N/A   Clear
3:56 AM 24.8 °F - 21.2 °F 86% 30.07 in 10.0 mi Calm Calm - N/A   Clear
4:16 AM 23.0 °F - 23.0 °F 100% 30.07 in 10.0 mi Calm Calm - N/A   Clear
4:36 AM 23.0 °F - 21.2 °F 93% 30.07 in 10.0 mi Calm Calm - N/A   Clear
4:56 AM 23.0 °F 18.4 °F 21.2 °F 93% 30.08 in 10.0 mi NW 3.5 mph - N/A   Clear
5:16 AM 23.0 °F 18.4 °F 21.2 °F 93% 30.08 in 10.0 mi NW 3.5 mph - N/A   Clear
5:36 AM 24.8 °F 20.5 °F 21.2 °F 86% 30.08 in 10.0 mi WNW 3.5 mph - N/A   Clear
5:56 AM 23.0 °F - 21.2 °F 93% 30.09 in 10.0 mi Calm Calm - N/A   Clear
6:16 AM 21.2 °F 13.6 °F 19.4 °F 93% 30.10 in 10.0 mi NW 5.8 mph - N/A   Clear
6:36 AM 26.6 °F 21.2 °F 21.2 °F 80% 30.10 in 10.0 mi NW 4.6 mph - N/A   Clear
6:56 AM 26.6 °F 21.2 °F 23.0 °F 86% 30.10 in 10.0 mi NW 4.6 mph - N/A   Clear
7:16 AM 26.6 °F - 24.8 °F 93% 30.11 in 10.0 mi Calm Calm - N/A   Clear
7:36 AM 30.2 °F - 23.0 °F 75% 30.11 in 10.0 mi Calm Calm - N/A   Clear
7:56 AM 32.0 °F 26.4 °F 21.2 °F 64% 30.12 in 10.0 mi NW 5.8 mph - N/A   Clear
8:16 AM 35.6 °F 31.7 °F 19.4 °F 52% 30.13 in 10.0 mi NW 4.6 mph - N/A   Clear
8:36 AM 35.6 °F 29.2 °F 17.6 °F 48% 30.13 in 10.0 mi NNW 8.1 mph - N/A   Clear
8:56 AM 37.4 °F 31.4 °F 15.8 °F 41% 30.13 in 10.0 mi NNW 8.1 mph - N/A   Clear
9:16 AM 37.4 °F 32.8 °F 12.2 °F 36% 30.14 in 10.0 mi NNW 5.8 mph - N/A   Clear
9:36 AM 39.2 °F 32.0 °F 10.4 °F 31% 30.15 in 10.0 mi NNE 11.5 mph - N/A   Clear
9:56 AM 39.2 °F 33.0 °F 8.6 °F 28% 30.15 in 10.0 mi NNE 9.2 mph - N/A   Clear
10:16 AM 39.2 °F 33.0 °F 8.6 °F 28% 30.16 in 10.0 mi North 9.2 mph - N/A   Clear
10:36 AM 39.2 °F - 10.4 °F 31% 30.16 in 10.0 mi Calm Calm - N/A   Clear
10:56 AM 41.0 °F 36.4 °F 8.6 °F 26% 30.17 in 10.0 mi NNE 6.9 mph - N/A   Clear
11:16 AM 41.0 °F 35.2 °F 8.6 °F 26% 30.18 in 10.0 mi NE 9.2 mph - N/A   Clear
11:36 AM 41.0 °F 35.8 °F 10.4 °F 29% 30.18 in 10.0 mi North 8.1 mph - N/A   Clear
11:56 AM 41.0 °F 35.2 °F 8.6 °F 26% 30.19 in 10.0 mi NE 9.2 mph - N/A   Clear
12:16 PM 41.0 °F 34.7 °F 10.4 °F 29% 30.19 in 10.0 mi NE 10.4 mph 16.1 mph N/A   Clear
12:36 PM 42.8 °F 37.0 °F 10.4 °F 27% 30.19 in 10.0 mi NNE 10.4 mph 16.1 mph N/A   Clear
12:56 PM 42.8 °F 38.6 °F 10.4 °F 27% 30.19 in 10.0 mi ENE 6.9 mph - N/A   Clear
1:16 PM 42.8 °F 38.0 °F 12.2 °F 29% 30.19 in 10.0 mi NNE 8.1 mph - N/A   Clear
1:36 PM 42.8 °F 39.3 °F 10.4 °F 27% 30.20 in 10.0 mi NNE 5.8 mph - N/A   Clear
1:56 PM 42.8 °F 38.0 °F 10.4 °F 27% 30.20 in 10.0 mi NE 8.1 mph - N/A   Clear
2:16 PM 44.6 °F 40.2 °F 10.4 °F 25% 30.21 in 10.0 mi North 8.1 mph - N/A   Clear
2:36 PM 44.6 °F 41.4 °F 12.2 °F 27% 30.21 in 10.0 mi ENE 5.8 mph 16.1 mph N/A   Clear
2:56 PM 44.6 °F 42.2 °F 10.4 °F 25% 30.21 in 10.0 mi NE 4.6 mph - N/A   Clear
3:16 PM 44.6 °F 37.8 °F 12.2 °F 27% 30.21 in 10.0 mi NW 15.0 mph - N/A   Clear
3:36 PM 44.6 °F 38.4 °F 12.2 °F 27% 30.22 in 10.0 mi NNW 12.7 mph - N/A   Clear
4:16 PM 44.6 °F 39.7 °F 12.2 °F 27% 30.23 in 10.0 mi WNW 9.2 mph - N/A   Clear
4:36 PM 42.8 °F 36.2 °F 12.2 °F 29% 30.23 in 10.0 mi NW 12.7 mph 18.4 mph N/A   Clear
4:56 PM 42.8 °F 37.5 °F 12.2 °F 29% 30.24 in 10.0 mi NW 9.2 mph 19.6 mph N/A   Clear
5:16 PM 44.6 °F 39.2 °F 12.2 °F 27% 30.23 in 10.0 mi WNW 10.4 mph - N/A   Clear
5:36 PM 42.8 °F 36.6 °F 12.2 °F 29% 30.24 in 10.0 mi NW 11.5 mph 16.1 mph N/A   Clear
5:56 PM 42.8 °F 37.5 °F 12.2 °F 29% 30.24 in 10.0 mi WNW 9.2 mph - N/A   Clear
6:16 PM 42.8 °F 37.5 °F 12.2 °F 29% 30.24 in 10.0 mi NNW 9.2 mph - N/A   Clear
6:36 PM 42.8 °F 38.6 °F 10.4 °F 27% 30.25 in 10.0 mi NNE 6.9 mph - N/A   Clear
6:56 PM 42.8 °F 38.0 °F 10.4 °F 27% 30.25 in 10.0 mi NNE 8.1 mph - N/A   Clear
7:16 PM 42.8 °F 39.3 °F 10.4 °F 27% 30.25 in 10.0 mi North 5.8 mph - N/A   Clear
7:36 PM 41.0 °F 37.1 °F 10.4 °F 29% 30.25 in 10.0 mi North 5.8 mph - N/A   Clear
8:16 PM 37.4 °F 32.1 °F 12.2 °F 36% 30.27 in 10.0 mi NNW 6.9 mph - N/A   Clear
8:36 PM 37.4 °F 31.4 °F 12.2 °F 36% 30.27 in 10.0 mi North 8.1 mph - N/A   Clear
8:56 PM 37.4 °F 31.4 °F 10.4 °F 33% 30.28 in 10.0 mi North 8.1 mph - N/A   Clear
9:16 PM 37.4 °F 33.8 °F 12.2 °F 36% 30.29 in 10.0 mi North 4.6 mph - N/A   Clear
9:36 PM 33.8 °F 29.6 °F 12.2 °F 41% 30.29 in 10.0 mi NNW 4.6 mph - N/A   Clear
9:56 PM 33.8 °F 29.6 °F 12.2 °F 41% 30.30 in 10.0 mi NW 4.6 mph - N/A   Clear
10:16 PM 33.8 °F 28.6 °F 12.2 °F 41% 30.31 in 10.0 mi NNW 5.8 mph - N/A   Clear
10:36 PM 33.8 °F 28.6 °F 14.0 °F 44% 30.31 in 10.0 mi NNW 5.8 mph - N/A   Clear
10:56 PM 33.8 °F 29.6 °F 14.0 °F 44% 30.32 in 10.0 mi NNW 4.6 mph - N/A   Clear
11:16 PM 30.2 °F 26.7 °F 15.8 °F 55% 30.32 in 10.0 mi NNW 3.5 mph - N/A   Clear
11:36 PM 30.2 °F 25.4 °F 17.6 °F 60% 30.33 in 10.0 mi North 4.6 mph - N/A   Clear
11:56 PM 30.2 °F - 17.6 °F 60% 30.33 in 10.0 mi Calm Calm - N/A   Clear